AirNav   TITAN Aviation Fuels
 
 996 users online  

KCHN Wauchula Municipal Airport
Wauchula, Florida, USA

GOING TO WAUCHULA?


FAA INFORMATION EFFECTIVE 22 APRIL 2021

Location

FAA Identifier: CHN
Lat/Long: 27-30-53.7000N 081-52-49.7000W
27-30.895000N 081-52.828333W
27.5149167,-81.8804722
(estimated)
Elevation: 107.8 ft. / 32.9 m (surveyed)
Variation: 04W (2000)
From city: 5 miles SW of WAUCHULA, FL
Time zone: UTC -4 (UTC -5 during Standard Time)
Zip code: 33873

Airport Operations

Airport use: Open to the public
Activation date: 11/1983
Control tower: no
ARTCC: MIAMI CENTER
FSS: SAINT PETERSBURG FLIGHT SERVICE STATION
NOTAMs facility: PIE (NOTAM-D service available)
Attendance: 1600-2000
Wind indicator: lighted
Segmented circle: yes
Lights: ACTVT REIL RWY 18 & 36; MIRL RWY 18/36 - CTAF.
Beacon: white-green (lighted land airport)
Operates sunset to sunrise.

Airport Communications

CTAF: 122.9
WX AWOS-3 at AVO (19 nm E): 118.725 (863-453-4223)
  • APCH/DEP SVC PRVDD BY MIAMI ARTCC ON FREQS 134.55/257.7 (AVON PARK RCAG).

Nearby radio navigation aids

VOR radial/distance  VOR name  Freq  Var
LALr165/29.2LAKELAND VORTAC116.0001E
PGDr015/(36.4)PUNTA GORDA VOR110.2006W
SRQr085/36.9SARASOTA VOR/DME117.0005W

Airport Services

Fuel available: 100LL
FUEL 24 HR CREDIT CARD SVC AVBL.
Parking: tiedowns
Airframe service: MINOR
Powerplant service: MINOR
Bottled oxygen: NONE
Bulk oxygen: NONE

Runway Information

Runway 18/36

Dimensions: 4005 x 75 ft. / 1221 x 23 m
Surface: asphalt, in excellent condition
Weight bearing capacity: 
PCN 7 /F/B/Y/T
Single wheel: 24.0
Double wheel: 39.0
Runway edge lights: medium intensity
RUNWAY 18  RUNWAY 36
Latitude: 27-31.224823N27-30.563918N
Longitude: 081-52.828178W081-52.827343W
Elevation: 99.3 ft.103.3 ft.
Traffic pattern: leftleft
Runway heading: 184 magnetic, 180 true004 magnetic, 360 true
Markings: nonprecision, in good conditionnonprecision, in good condition
Visual slope indicator: 4-light PAPI on left (4.00 degrees glide path)4-light PAPI on left (3.00 degrees glide path)
Runway end identifier lights: yesyes
Touchdown point: yes, no lightsyes, no lights
Obstructions: 25 ft. trees, 600 ft. from runway, 130 ft. left of centerline, 24:1 slope to clear5 ft. brush, 205 ft. from runway, 225 ft. right of centerline, 1:1 slope to clear

Airport Ownership and Management from official FAA records

Ownership: Publicly-owned
Owner: CITY OF WAUCHULA
126 S 7TH AVE.
WAUCHULA, FL 33873
Phone 863-773-3131
CTC PERSON: OLIVIA MINSHEW
Manager: WARD GRIMES
1202 MAURICE SONNY CLAVEL RD.
WAUCHULA, FL 33873
Phone (863) 773-3115
AIRPORT PHYSICAL ADDRESS: 1202 MAURICE SONNY CLAVEL ROAD.

Airport Operational Statistics

Aircraft based on the field: 24
Single engine airplanes: 18
Multi engine airplanes: 2
Helicopters: 4
    
Aircraft operations: avg 22/day *
59% transient general aviation
41% local general aviation
* for 12-month period ending 25 July 2018

Additional Remarks

FOR CD CTC MIAMI ARTCC AT 305-716-1731.

Instrument Procedures

NOTE: All procedures below are presented as PDF files. If you need a reader for these files, you should download the free Adobe Reader.

NOT FOR NAVIGATION. Please procure official charts for flight.
FAA instrument procedures published for use from 22 April 2021 at 0901Z to 20 May 2021 at 0900z.

 
IAPs - Instrument Approach Procedures
RNAV (GPS) RWY 18   download (244KB)
RNAV (GPS) RWY 36   download (232KB)
NOTE: Special Take-Off Minimums/Departure Procedures apply   download (162KB)

Other nearby airports with instrument procedures:

KAVO - Avon Park Executive Airport (19 nm E)
X06 - Arcadia Municipal Airport (19 nm S)
KBOW - Bartow Executive Airport (26 nm N)
X07 - Lake Wales Municipal Airport (27 nm NE)
KSEF - Sebring Regional Airport (29 nm E)
 
Loc | Ops | Rwys | IFR | FBO | Links
Com | Nav | Svcs | Stats | Notes


 
Area around KCHN (Wauchula Municipal Airport)
 
Road maps at: MapQuest Bing Google
 
Aerial photo
WARNING: Photo may not be current or correct
Aerial photo of KCHN (Wauchula Municipal Airport)
Photo by Joshua C. Smith
Photo taken 16-Feb-2015
looking east.

Do you have a better or more recent aerial photo of Wauchula Municipal Airport that you would like to share? If so, please send us your photo.

 
Sectional chart

 
Airport diagram
CAUTION: Diagram may not be current
Diagram of KCHN (Wauchula Municipal Airport)
 
Airport distance calculator
Flying to Wauchula Municipal Airport? Find the distance to fly.

From to KCHN

Sunrise and sunset
Times for 11-May-2021
 Local
(UTC-4)
 Zulu
(UTC)
Morning civil twilight06:1710:17
Sunrise06:4210:42
Sunset20:0600:06
Evening civil twilight20:3100:31

Current date and time
Zulu (UTC)  12-May-2021 02:12:35
Local (UTC-4)  11-May-2021 22:12:35
 
METAR
KBOW 
26nm N 
120155Z AUTO 06005KT 10SM CLR 26/21 A3007 RMK AO2
KX07 
27nm NE 
120155Z AUTO 060KT 10SM SCT060 26/21 A3008 RMK A01
KLAL 
28nm N 
120150Z 08006KT 10SM SCT035 26/21 A3008
KSEF 
29nm E 
120155Z AUTO 12003KT 10SM SCT060 SCT080 SCT120 27/21 A3007 RMK AO2 T02670212
KPCM 
33nm NW 
120155Z AUTO 00000KT 10SM CLR 26/21 A3009 RMK AO2
KGIF 
34nm N 
120153Z AUTO 07006KT 10SM CLR 26/21 A3008 RMK AO2 SLP183 T02610206
KPGD 
36nm S 
120153Z AUTO 01005KT 10SM FEW055 FEW080 OVC100 27/21 A3006 RMK AO2 SLP180 T02720211 $
KSRQ 
37nm W 
120153Z 33003KT 10SM CLR 26/22 A3005 RMK AO2 SLP174 T02610222
KTPF 
39nm NW 
120155Z AUTO 00000KT 10SM OVC110 27/22 A3007 RMK AO2
KVDF 
39nm NW 
120155Z AUTO 00000KT 10SM SCT028 27/22 A3008 RMK AO2
TAF
KLAL 
28nm N 
111725Z 1118/1218 26007KT P6SM SCT030 BKN250 FM112000 28007KT P6SM VCTS SCT030CB BKN250 FM112300 29008KT P6SM SCT030 SCT250 FM120200 VRB03KT P6SM SCT250 FM121400 24005KT P6SM FEW030 SCT250
NOTAMs
Click for the latest NOTAMs
NOTAMs are issued by the DoD/FAA and will open in a separate window not controlled by AirNav.

 

 
 

FBO, Fuel Providers, and Aircraft Ground Support

  
 Business Name 
 
 Contact 
 
 Services / Description 
 
Fuel Prices
 
Comments
  
Wauchula Municipal Airport 122.90
863-773-3115
[web site]
[email]
Airport management, Aviation fuel, Aircraft parking (ramp or tiedown), Hangar leasing / sales, Pilots lounge / snooze room, Public telephone, Computerized weather, ...
More info and photos of Wauchula Municipal Airport
Phillips 66
100LL
SS $4.08 
GUARANTEED
 
   5 read write
SS=Self service
Update Fuel Prices
 

Would you like to see your business listed on this page?

 If your business provides an interesting product or service to pilots, flight crews, aircraft, or users of the Wauchula Municipal Airport, you should consider listing it here.  To start the listing process, click on the button below
 
Add a business
 

Other Pages about Wauchula Municipal Airport

www.cityofwauchula.com/wauchula-municipal-airport
 
Update a link
 
Copyright © AirNav, LLC. All rights reserved. Privacy Policy  Contact